Location: Caltech
(34.1382°N, 118.1253°W)
Time: 03:20:18
(UTC-07:00)

Cosmos 2237 Rocket - Visible Passes

Search period start: 21 October 2014 00:00
Search period end: 31 October 2014 00:00
Orbit: 835 x 850 km, 71.0° (Epoch: 19 October)

Date Brightness Start Highest point End Pass type
(mag) Time Alt. Az. Time Alt. Az. Time Alt. Az.
21 Oct 4.8 04:39:11 10° NNE 04:42:44 17° ENE 04:46:17 10° E visible
21 Oct 2.2 06:21:41 10° NNW 06:27:12 60° WSW 06:32:41 10° S visible
21 Oct 2.2 19:25:01 10° S 19:30:36 63° ESE 19:36:12 10° NNE visible
21 Oct 4.7 21:11:37 10° W 21:15:06 16° NW 21:18:36 10° NNW visible
22 Oct 4.8 04:24:33 10° NNE 04:27:57 16° NE 04:31:19 10° E visible
22 Oct 2.2 06:06:54 10° NNW 06:12:28 63° WSW 06:17:58 10° S visible
22 Oct 2.2 19:10:18 10° S 19:15:52 60° ESE 19:21:26 10° NNE visible
22 Oct 4.7 20:56:40 10° W 21:00:19 17° WNW 21:03:59 10° NNW visible
23 Oct 4.8 04:09:57 10° NNE 04:13:10 15° NE 04:16:21 10° E visible
23 Oct 2.1 05:52:08 10° NNW 05:57:43 67° WSW 06:03:15 10° S visible
23 Oct 2.3 18:55:36 10° S 19:01:07 56° ESE 19:06:40 10° NNE visible
23 Oct 4.7 20:41:44 10° W 20:45:32 18° WNW 20:49:20 10° NNW visible
24 Oct 4.8 03:55:21 10° NNE 03:58:22 15° NE 04:01:22 10° E visible
24 Oct 2.1 05:37:22 10° NNW 05:42:58 71° WSW 05:48:32 10° S visible
24 Oct 2.4 18:40:53 10° S 18:46:23 53° ESE 18:51:53 10° NNE visible
24 Oct 4.6 20:26:49 10° WSW 20:30:45 19° WNW 20:34:42 10° NNW visible
25 Oct 4.9 03:41:51 12° NE 03:43:35 14° NE 03:46:22 10° E visible
25 Oct 2.0 05:23:49 17° NNW 05:28:14 75° WSW 05:33:48 10° SSE visible
25 Oct 2.4 18:26:11 10° S 18:31:39 51° ESE 18:37:06 10° NNE visible
25 Oct 4.6 20:11:54 10° WSW 20:15:58 20° WNW 20:20:03 10° NNW visible
26 Oct 4.9 03:29:27 13° ENE 03:29:27 13° ENE 03:31:20 10° E visible
26 Oct 2.0 05:11:25 41° NNW 05:13:29 79° WSW 05:19:04 10° SSE visible
26 Oct 4.5 19:57:00 10° WSW 20:01:11 21° WNW 20:05:23 10° N visible
27 Oct 2.0 04:58:57 80° SSW 04:58:57 80° SSW 05:04:20 10° SSE visible
27 Oct 4.5 19:42:06 10° WSW 19:46:24 22° WNW 19:50:44 10° N visible
28 Oct 3.2 04:46:23 36° SSE 04:46:23 36° SSE 04:49:35 10° SSE visible
28 Oct 4.5 19:27:13 10° WSW 19:31:38 23° WNW 19:36:03 10° N visible
29 Oct 4.2 04:33:40 17° SSE 04:33:40 17° SSE 04:34:50 10° SSE visible
29 Oct 4.4 19:12:21 10° WSW 19:16:51 24° WNW 19:21:23 10° N visible
30 Oct 4.3 18:57:28 10° WSW 19:02:05 25° WNW 19:06:42 10° N visible
